[[{"header":{"parameterUnit":"m.s-1","parameterCategory":1,"la1":30.2992,"la2":30.254,"lo1":-89.0895,"lo2":-89.0443,"dy":0.0025,"dx":0.0025,"nx":19,"ny":19,"refTime":"2026-04-27T21:00:00:Z","depth":0,"parameterNumber":2,"parameterNumberName":"U-component_of_WINDS"},"data":[0,0,0,-2.938,-2.9381,-2.9428,-2.9428,-2.9495,-2.9496,0,0,0,0,0,0,0,0,0,0,0,-2.9369,-2.937,-2.938,-2.9381,-2.9428,-2.9428,-2.9495,-2.9496,0,0,0,0,0,0,0,0,0,0,0,-2.9369,-2.937,-2.937,-2.9381,-2.9428,-2.9428,-2.9495,-2.9457,0,0,0,0,0,0,0,0,0,0,-2.941,-2.9403,-2.9369,-2.937,-2.9381,-2.9428,-2.9428,-2.9455,-2.9459,-2.9476,0,-2.9492,0,-2.9495,-2.9501,-2.9501,0,0,0,-2.9378,-2.94,-2.941,-2.937,-2.9382,-2.9428,-2.9406,-2.9457,-2.9462,-2.9482,-2.9493,-2.9495,-2.9496,-2.9501,-2.9501,-2.9609,-2.961,0,0,-2.9375,-2.9379,-2.9406,-2.9413,-2.9406,-2.9405,-2.9408,-2.946,-2.9472,-2.9493,-2.9497,-2.9497,-2.9501,-2.9502,-2.9609,-2.961,0,0,0,-2.937,-2.9378,-2.9386,-2.941,-2.9419,-2.9406,-2.9409,-2.947,-2.9472,-2.9498,-2.9498,-2.9502,-2.9503,-2.9608,-2.9609,-2.9644,0,0,0,-2.9368,-2.9374,-2.9385,-2.9388,-2.9418,-2.9445,-2.9418,-2.9469,-2.9475,-2.9498,-2.9502,-2.9503,-2.9607,-2.9609,-2.9641,-2.9659,0,0,0,-2.9365,-2.9374,-2.9382,-2.9388,-2.9409,-2.9444,-2.9449,-2.947,-2.9475,-2.9501,-2.9504,-2.9607,-2.9608,-2.9639,-2.9655,-2.9688,0,0,0,-2.9362,-2.9412,-2.9383,-2.9439,-2.9408,-2.9466,-2.9449,-2.9491,-2.9517,-2.9502,-2.9608,-2.9609,-2.9638,-2.9653,-2.9686,-2.9716,-2.9729,0,0,-2.9427,-2.942,-2.9452,-2.9428,-2.9491,-2.9458,-2.9527,-2.9547,-2.9546,-2.9588,-2.9591,-2.9642,-2.9655,-2.9688,-2.9804,-2.9814,0,0,0,-2.9474,-2.9497,-2.9513,-2.9539,-2.9556,-2.9573,-2.9582,-2.959,-2.9626,-2.9568,-2.9664,-2.9671,-2.969,-2.9704,-2.9713,-2.9729,-2.9616,-2.9616,-2.9616,-2.9569,-2.9566,-2.962,-2.9623,-2.9649,-2.9659,-2.9679,-2.9692,-2.968,-2.9703,-2.9715,-2.9786,-2.9803,-2.9809,-2.9826,-2.9732,-2.9732,-2.9732,-2.9732,-2.9663,-2.9695,-2.9681,-2.9728,-2.9725,-2.9764,-2.9778,-2.9769,-2.9805,-2.9776,-2.9793,-2.976,-2.9821,-2.9835,-2.9735,-2.9734,-2.9734,-2.9734,-2.9734,-2.9723,-2.9738,-2.9748,-2.9786,-2.9816,-2.9818,-2.9854,-2.985,-2.9847,-2.9863,-2.9876,-2.9875,-2.9873,-2.987,-2.987,-2.987,-2.9871,-2.9871,-2.9871,-2.9782,-2.9792,-2.9823,-2.9847,-2.9864,-2.9886,-2.9899,-2.9915,-2.9932,-2.9927,-2.9927,-2.9913,-2.9828,-2.9806,-2.9875,-2.9874,-2.9874,-2.9873,-2.9873,-2.9875,-2.9854,-2.9902,-2.9919,-2.9948,-2.9978,-2.9974,-3.0008,-3.0021,-3.004,-3.0024,-2.9962,-2.9954,-2.9946,-2.9928,-3.0025,-3.0025,-3.0025,-3.0025,-2.9925,-2.9922,-2.997,-2.9998,-3.0025,-3.0027,-3.0081,-3.0093,-3.0101,-3.0109,-3.0096,-3.0071,-3.0065,-3.006,-3.0051,-3.0033,-3.0155,-3.0155,-3.0155,-2.9982,-2.9982,-3.0028,-3.0037,-3.006,-3.008,-3.0132,-3.0164,-3.017,-3.016,-3.0116,-3.011,-3.0071,-3.0059,-3.0046,-3.0031,-2.9999,0,0]},{"header":{"parameterUnit":"m.s-1","parameterCategory":1,"la1":30.2992,"la2":30.254,"lo1":-89.0895,"lo2":-89.0443,"dy":0.0025,"dx":0.0025,"nx":19,"ny":19,"refTime":"2026-04-27T21:00:00:Z","depth":0,"parameterNumber":3,"parameterNumberName":"V-component_of_WINDS"},"data":[0,0,0,3.9234,3.9232,3.9125,3.9125,3.8992,3.8991,0,0,0,0,0,0,0,0,0,0,0,3.9272,3.9272,3.9235,3.9232,3.9125,3.9125,3.8992,3.8991,0,0,0,0,0,0,0,0,0,0,0,3.9273,3.9272,3.9271,3.9232,3.9125,3.9125,3.8992,3.9071,0,0,0,0,0,0,0,0,0,0,3.9174,3.9215,3.9272,3.9271,3.9231,3.9125,3.9125,3.9074,3.9066,3.9044,0,3.9029,0,3.9008,3.8983,3.8982,0,0,0,3.9226,3.9223,3.9189,3.9271,3.923,3.9126,3.9172,3.907,3.906,3.9032,3.9027,3.9022,3.9006,3.8982,3.8981,3.8882,3.8882,0,0,3.9232,3.9255,3.9196,3.9183,3.9204,3.9175,3.9169,3.9064,3.9057,3.9026,3.9018,3.9004,3.8981,3.898,3.8882,3.8882,0,0,0,3.9253,3.926,3.9228,3.9189,3.9169,3.9172,3.9165,3.9062,3.905,3.9017,3.9002,3.898,3.8979,3.8883,3.8882,3.8898,0,0,0,3.9256,3.9272,3.9231,3.9244,3.9172,3.9115,3.9166,3.9057,3.9045,3.9003,3.898,3.8978,3.8883,3.8882,3.8898,3.89,0,0,0,3.9277,3.9274,3.9261,3.9245,3.9201,3.9116,3.9098,3.9054,3.9036,3.8982,3.8977,3.8883,3.8882,3.8897,3.89,3.8881,0,0,0,3.9304,3.9273,3.9262,3.9221,3.9202,3.9128,3.9099,3.9041,3.8997,3.898,3.8883,3.8882,3.8897,3.89,3.8882,3.887,3.8868,0,0,3.9278,3.9271,3.9245,3.9232,3.9167,3.9142,3.9078,3.9012,3.8984,3.8917,3.8914,3.8898,3.89,3.8882,3.8848,3.8847,0,0,0,3.9244,3.9226,3.9204,3.9165,3.9118,3.9077,3.9021,3.8997,3.894,3.8956,3.8885,3.8886,3.8874,3.8867,3.8866,3.8854,3.8881,3.8881,3.8881,3.9237,3.9207,3.9163,3.912,3.9082,3.9026,3.8992,3.895,3.8926,3.891,3.889,3.8874,3.8867,3.8866,3.8854,3.8881,3.8881,3.8881,3.8881,3.9195,3.9165,3.9139,3.9087,3.9054,3.9008,3.8953,3.8938,3.8889,3.8886,3.8874,3.8873,3.8865,3.8853,3.8882,3.8882,3.8882,3.8882,3.8882,3.9187,3.9167,3.9142,3.9085,3.9043,3.8999,3.8955,3.8925,3.8896,3.8885,3.886,3.886,3.8855,3.8875,3.8875,3.8875,3.8875,3.8875,3.8875,3.9188,3.916,3.9128,3.9078,3.9051,3.901,3.8955,3.8925,3.8885,3.8866,3.8866,3.8844,3.8871,3.8879,3.8874,3.8874,3.8874,3.8875,3.8875,3.9156,3.916,3.9111,3.9084,3.9023,3.8984,3.8949,3.8892,3.8863,3.8842,3.8823,3.8849,3.8838,3.8838,3.8844,3.8831,3.8831,3.8831,3.8831,3.9149,3.9143,3.9087,3.9046,3.9002,3.8966,3.8909,3.8866,3.8821,3.8801,3.8799,3.8804,3.8807,3.8794,3.8796,3.8801,3.8777,3.8776,3.8776,3.9128,3.9116,3.9075,3.9036,3.8987,3.8945,3.8891,3.8842,3.8791,3.8774,3.8785,3.8787,3.8795,3.88,3.8781,3.8784,3.8793,0,0]}]]